Wind_Speed
16 17 16 20 21 21 27 32 36 39 41 44 44 44 37 45 36 47 45 48 48 46 47 50 54 58 60 61 62 65 66 67 69 71 71 71 73 74 76 76 76 76 77
19 19 18 20 23 27 29 33 39 43 45 44 45 42 42 42 47 50 50 50 51 53 56 59 62 65 67 69 72 75 75 75 77 77 77 78 76 77 79 81 81 81 81
19 18 19 22 29 32 35 38 38 41 45 45 44 45 47 46 47 49 50 52 55 59 62 65 69 72 75 76 79 81 81 81 81 81 81 80 80 81 78 81 84 85 85
19 21 30 32 35 37 40 42 43 47 48 46 44 45 44 45 47 49 53 58 62 65 69 72 75 77 79 80 81 83 85 84 84 83 82 84 87 88 91 89 84 86 89
24 33 36 37 38 38 42 45 47 43 40 39 40 41 43 44 49 55 59 62 65 68 71 75 78 80 83 85 85 85 84 85 85 86 87 88 90 94 95 93 91 90 91
31 32 34 39 39 43 44 44 41 40 38 39 39 40 44 48 52 56 60 62 66 70 78 82 84 87 88 88 88 89 89 89 89 88 88 88 88 89 91 93 93 94 94
33 30 33 45 46 43 36 35 32 32 34 37 39 43 48 52 57 60 64 69 76 83 85 86 88 89 89 89 90 90 91 92 88 84 73 71 73 79 80 82 82 84 83
31 37 44 41 35 34 29 29 33 37 40 44 47 51 57 62 65 69 73 78 81 85 88 90 92 93 94 95 95 95 91 84 79 74 66 72 77 75 64 62 64 62 60
30 34 31 34 35 30 32 37 40 42 45 49 54 58 62 64 68 72 77 82 86 90 92 95 95 96 95 96 92 84 77 73 71 63 67 70 58 51 49 48 49 49 46
29 31 35 38 38 39 43 46 49 51 53 56 60 63 66 70 75 79 83 86 89 93 94 94 94 95 93 84 78 73 68 66 64 66 70 76 60 56 54 52 51 51 51
33 37 41 43 45 47 50 53 54 56 58 61 64 66 70 75 80 84 86 89 92 94 93 95 95 90 80 71 68 69 62 60 63 70 69 54 55 55 56 57 57 58 58
34 38 43 47 46 51 52 54 56 59 62 65 66 69 75 79 83 87 89 91 93 94 95 97 88 75 69 64 59 59 57 57 66 62 54 54 54 56 59 58 57 56 56
35 39 43 46 48 50 53 55 59 62 64 66 69 73 77 80 85 88 90 93 95 96 99 89 74 65 61 54 52 58 61 66 56 53 52 54 56 54 49 48 48 50 51
37 40 42 45 48 51 54 58 61 63 64 69 72 76 80 83 88 90 93 96 97 101 91 71 60 58 51 45 52 57 48 48 49 51 54 52 47 42 41 44 46 47 45
41 44 46 49 51 54 57 59 61 63 69 72 76 79 83 87 89 91 95 96 98 89 69 56 51 45 40 41 33 41 45 45 50 50 51 45 43 46 50 50 49 48 47
45 47 49 52 53 54 57 60 63 68 71 75 80 84 87 88 90 94 96 98 88 69 52 44 38 31 28 33 38 43 43 48 50 50 46 43 45 48 49 49 48 46 44
48 49 51 52 53 55 58 62 67 70 73 79 83 84 86 89 95 95 95 85 67 51 41 36 33 33 32 35 40 45 43 51 49 48 44 42 44 45 47 46 44 41 39
50 52 53 54 54 56 61 65 68 72 77 82 83 84 88 93 95 94 85 68 52 44 38 35 35 34 34 37 42 45 44 52 47 45 40 39 40 43 44 42 38 35 36
52 56 55 53 55 59 63 67 71 76 80 81 83 88 93 95 93 86 72 55 44 38 34 35 36 35 35 38 43 43 44 50 44 42 37 36 38 41 44 39 34 30 29
56 56 54 56 59 62 66 71 75 78 79 82 87 91 94 91 87 75 59 47 40 34 32 34 35 35 37 40 44 43 45 46 41 37 34 34 35 39 40 36 32 27 21
58 56 57 59 62 67 71 74 77 78 80 84 88 93 91 87 76 64 51 41 35 31 32 34 35 35 36 40 44 43 46 44 38 32 29 30 32 36 38 36 32 25 18
59 58 60 63 67 70 74 76 77 79 81 86 91 89 86 77 67 55 42 36 31 30 31 34 35 36 37 40 43 43 46 42 36 29 26 26 28 32 34 34 31 25 18
60 61 64 67 70 74 77 76 77 80 84 89 88 84 79 68 59 47 36 33 31 31 32 34 36 37 38 41 40 42 44 42 35 28 24 23 24 27 28 29 28 23 17
61 64 66 68 73 76 76 76 79 83 88 86 82 78 68 60 51 39 34 33 32 32 32 34 36 36 38 39 38 40 42 41 33 30 22 21 20 22 24 22 23 21 17
62 65 68 72 75 75 75 77 82 87 85 81 77 67 61 51 41 34 33 32 31 30 31 34 34 35 37 36 37 39 40 39 30 28 21 20 18 18 19 18 17 17 16
65 69 73 75 74 73 74 81 87 85 81 76 67 59 52 42 35 32 31 29 28 29 30 31 31 34 34 35 37 38 38 36 29 26 22 18 17 15 15 16 13 11 12
Wind_Direction
298 301 309 314 308 313 321 318 313 311 308 307 307 307 298 301 294 295 297 298 301 303 304 304 303 303 302 303 304 304 303 301 300 298 295 293 290 287 284 281 279 277 275
301 305 309 302 305 307 310 307 309 303 300 301 301 298 295 295 296 298 299 302 303 305 305 305 304 305 305 305 304 304 303 300 298 296 294 292 288 284 282 281 278 275 274
301 297 292 296 302 305 312 309 304 301 297 295 294 294 296 298 299 301 303 304 305 306 307 308 307 308 306 304 302 301 300 299 296 293 292 290 289 287 279 276 275 274 272
300 296 305 306 290 299 301 301 296 296 296 298 298 298 301 305 305 305 307 309 310 310 310 309 306 303 300 298 298 300 301 301 298 295 292 290 289 286 285 282 275 272 270
295 300 302 297 295 296 301 301 302 303 302 302 304 304 305 304 307 310 310 307 307 307 304 301 301 302 302 304 303 302 300 297 293 290 287 283 280 278 275 272 268 264 263
290 291 296 291 298 306 305 306 306 307 306 303 302 303 303 302 303 303 303 304 303 303 306 308 308 307 307 306 304 303 299 297 293 288 284 283 281 279 277 275 272 268 263
291 286 290 305 303 299 296 296 293 293 291 291 293 295 299 302 304 306 309 311 313 312 310 307 307 307 305 304 302 300 298 295 292 292 293 291 289 287 286 280 277 275 271
290 294 298 293 291 296 294 290 292 292 294 296 297 302 308 312 313 313 313 312 310 309 310 311 311 309 307 306 303 300 296 294 292 298 301 294 290 295 292 286 281 277 277
299 296 289 293 296 296 299 299 302 303 300 302 309 312 312 311 312 312 312 312 312 312 312 311 309 308 304 303 300 297 296 297 296 287 300 307 303 303 300 295 291 288 282
303 303 297 298 305 305 306 309 311 312 311 311 312 312 313 313 314 313 312 312 313 311 311 309 309 307 304 300 297 296 296 299 291 295 302 305 300 301 298 295 290 287 284
317 314 312 312 312 313 312 312 311 311 312 311 312 312 312 313 312 312 312 311 311 311 311 311 309 305 303 300 296 291 295 295 298 303 306 299 296 295 293 291 289 285 282
318 317 314 311 310 308 308 309 310 310 311 312 311 311 313 312 312 311 310 311 312 312 311 311 310 304 301 298 295 295 289 304 307 306 301 300 299 298 296 293 290 286 281
314 311 311 309 306 304 306 307 307 309 310 310 311 311 311 311 310 311 312 313 313 314 314 313 310 304 300 297 291 296 306 307 303 304 304 304 303 303 300 296 292 286 280
310 307 305 302 302 302 303 304 306 309 310 310 310 311 311 312 312 312 313 315 316 316 315 313 308 304 301 302 302 299 303 308 308 309 309 307 308 307 303 298 294 291 288
310 309 308 305 304 302 301 305 307 309 310 311 312 313 314 314 314 315 317 317 317 316 315 312 309 309 311 305 310 314 312 313 313 313 314 313 311 307 305 301 297 291 286
310 309 307 303 302 302 304 307 308 311 312 312 314 315 314 315 317 318 318 318 317 317 315 316 314 320 317 316 319 317 317 320 321 320 315 312 310 311 310 306 301 294 290
308 309 308 306 303 306 307 309 311 311 312 314 315 315 316 319 320 320 320 319 317 316 313 315 317 316 313 316 319 320 319 325 323 320 315 314 317 317 317 314 306 297 293
311 310 307 305 308 307 308 309 310 312 315 315 316 318 321 321 320 321 321 319 315 313 311 311 313 312 313 314 316 320 322 327 323 320 317 321 324 327 327 323 314 302 297
307 309 310 308 308 308 309 311 314 316 317 317 318 321 322 322 321 322 321 316 312 309 305 306 308 311 308 312 315 320 323 327 324 322 321 324 329 331 332 330 327 313 306
309 312 309 309 309 311 313 315 317 318 318 318 321 322 322 321 323 321 319 314 312 309 306 310 311 307 306 312 317 319 323 328 327 323 321 325 331 334 338 339 339 330 317
312 310 308 309 311 314 315 317 319 319 320 320 321 321 321 322 322 321 316 312 311 308 305 311 311 306 308 313 318 321 324 328 329 322 319 326 333 338 344 347 348 348 340
311 309 309 312 314 316 319 320 319 319 320 321 320 320 322 323 321 320 314 311 309 307 310 312 311 310 314 316 320 322 324 329 332 323 320 327 335 342 349 352 356 359 3
310 311 313 314 317 319 320 319 319 319 320 320 319 321 323 321 321 319 312 310 310 307 308 312 314 316 317 318 320 322 325 331 333 326 321 326 333 345 353 358 0 5 14
312 313 314 316 318 318 318 318 319 321 321 319 321 322 321 321 320 317 312 312 312 309 309 313 315 316 316 319 320 323 327 331 331 330 320 322 328 343 353 358 8 11 16
312 312 314 316 317 317 317 319 320 320 319 320 321 321 321 322 319 315 312 311 312 312 313 314 315 315 318 321 322 326 328 329 328 330 318 315 320 333 351 354 10 18 24
311 313 314 315 316 317 319 320 319 318 319 321 321 321 322 321 317 315 313 313 315 313 313 312 314 317 321 323 326 326 327 328 327 329 319 306 312 324 339 349 357 12 26
Height
5810 5809 5808 5806 5804 5801 5800 5798 5794 5790 5786 5782 5778 5775 5770 5766 5761 5757 5751 5746 5742 5737 5732 5727 5720 5715 5711 5705 5699 5695 5691 5686 5681 5677 5673 5668 5662 5658 5654 5652 5649 5648 5647
5806 5803 5802 5801 5799 5796 5795 5794 5790 5785 5779 5775 5771 5767 5762 5756 5752 5747 5740 5735 5730 5725 5720 5714 5708 5701 5695 5688 5681 5676 5670 5665 5658 5652 5648 5645 5644 5637 5630 5626 5624 5624 5623
5801 5800 5799 5797 5795 5792 5789 5784 5779 5775 5770 5767 5763 5759 5753 5747 5742 5736 5730 5725 5720 5714 5707 5700 5692 5684 5677 5671 5663 5655 5647 5641 5635 5626 5620 5616 5614 5610 5610 5605 5600 5598 5596
5797 5796 5794 5792 5789 5786 5783 5779 5773 5768 5762 5757 5753 5748 5743 5738 5731 5726 5720 5713 5706 5700 5692 5684 5677 5670 5663 5655 5646 5636 5627 5619 5611 5605 5597 5589 5582 5578 5578 5578 5577 5572 5569
5793 5791 5788 5784 5781 5778 5773 5767 5762 5758 5754 5750 5745 5740 5734 5728 5721 5715 5709 5702 5696 5689 5682 5673 5663 5653 5642 5632 5623 5613 5602 5592 5584 5576 5570 5563 5556 5545 5538 5539 5543 5544 5541
5789 5787 5782 5778 5775 5770 5765 5759 5754 5750 5747 5741 5736 5732 5726 5721 5716 5709 5703 5695 5686 5677 5664 5650 5639 5629 5617 5607 5597 5585 5574 5563 5553 5544 5534 5528 5524 5518 5510 5503 5505 5504 5511
5782 5780 5775 5770 5767 5764 5760 5756 5750 5745 5741 5737 5731 5726 5720 5714 5706 5697 5687 5677 5663 5651 5642 5632 5620 5608 5596 5584 5573 5562 5551 5540 5527 5516 5509 5501 5494 5488 5483 5475 5471 5471 5479
5776 5774 5770 5764 5760 5757 5753 5748 5743 5738 5732 5726 5720 5714 5706 5695 5686 5677 5668 5659 5649 5636 5622 5608 5593 5580 5566 5557 5544 5533 5523 5513 5506 5499 5490 5483 5474 5464 5456 5450 5446 5449 5450
5769 5765 5760 5756 5752 5749 5745 5740 5734 5728 5721 5714 5706 5698 5690 5682 5674 5665 5654 5641 5627 5613 5601 5586 5573 5560 5542 5531 5518 5506 5499 5492 5486 5480 5474 5467 5457 5449 5442 5436 5431 5428 5432
5761 5755 5750 5746 5742 5738 5733 5727 5720 5712 5706 5699 5692 5683 5674 5665 5656 5645 5633 5620 5608 5595 5583 5568 5553 5536 5521 5507 5497 5488 5482 5476 5470 5464 5457 5449 5444 5437 5431 5426 5422 5418 5415
5750 5745 5740 5735 5731 5726 5720 5714 5707 5700 5693 5686 5678 5669 5660 5651 5640 5629 5617 5605 5591 5576 5558 5544 5528 5512 5500 5489 5480 5474 5468 5462 5455 5449 5442 5434 5430 5425 5419 5412 5407 5403 5399
5744 5738 5732 5728 5723 5718 5712 5704 5697 5690 5682 5673 5664 5655 5646 5637 5626 5612 5599 5584 5569 5556 5538 5523 5506 5490 5480 5472 5466 5459 5454 5447 5441 5434 5427 5421 5415 5409 5402 5395 5389 5385 5382
5738 5733 5727 5721 5716 5709 5702 5694 5688 5680 5672 5662 5654 5645 5634 5622 5609 5594 5579 5564 5547 5531 5516 5497 5484 5472 5463 5458 5452 5446 5440 5434 5428 5421 5414 5406 5399 5393 5386 5379 5374 5368 5365
5732 5727 5721 5714 5708 5700 5692 5685 5678 5670 5661 5651 5641 5630 5618 5605 5590 5575 5559 5542 5526 5509 5493 5478 5468 5457 5450 5446 5441 5436 5430 5424 5416 5408 5400 5392 5384 5379 5372 5366 5360 5354 5349
5723 5717 5711 5704 5697 5690 5682 5675 5667 5658 5647 5636 5624 5613 5600 5585 5570 5553 5535 5519 5503 5489 5476 5465 5454 5446 5441 5437 5432 5426 5420 5414 5406 5396 5387 5379 5373 5365 5358 5351 5344 5338 5333
5712 5706 5700 5694 5686 5678 5670 5662 5652 5642 5631 5620 5608 5595 5581 5566 5550 5533 5516 5500 5484 5472 5462 5454 5446 5440 5436 5430 5424 5419 5412 5404 5394 5385 5376 5369 5363 5354 5345 5335 5326 5320 5316
5704 5697 5690 5682 5673 5666 5657 5647 5637 5627 5617 5605 5592 5578 5563 5547 5531 5514 5496 5480 5467 5459 5451 5446 5440 5435 5430 5424 5418 5411 5403 5395 5385 5375 5367 5361 5352 5343 5333 5322 5313 5306 5301
5691 5685 5677 5669 5662 5653 5644 5635 5626 5615 5602 5589 5574 5559 5545 5527 5510 5494 5480 5466 5456 5448 5442 5438 5433 5429 5424 5418 5411 5404 5395 5386 5376 5366 5359 5352 5344 5333 5323 5312 5302 5295 5289
5680 5673 5665 5658 5650 5642 5632 5622 5611 5598 5584 5570 5555 5540 5525 5510 5493 5477 5465 5454 5447 5441 5435 5431 5426 5422 5417 5411 5404 5397 5389 5379 5368 5359 5351 5345 5336 5327 5316 5305 5295 5287 5281
5668 5661 5652 5644 5637 5627 5617 5606 5594 5581 5568 5553 5538 5523 5508 5493 5479 5463 5452 5443 5437 5432 5428 5424 5419 5414 5409 5403 5396 5388 5381 5372 5362 5352 5346 5339 5332 5323 5312 5301 5291 5282 5275
5655 5647 5640 5632 5623 5613 5602 5590 5577 5564 5551 5537 5522 5507 5492 5478 5464 5452 5441 5434 5429 5425 5421 5417 5412 5406 5402 5395 5388 5380 5373 5365 5356 5348 5342 5335 5328 5320 5309 5298 5289 5280 5274
5643 5635 5627 5617 5607 5597 5587 5574 5561 5548 5534 5520 5505 5491 5477 5463 5451 5441 5432 5426 5421 5418 5414 5409 5404 5399 5394 5387 5380 5373 5366 5358 5351 5343 5337 5332 5326 5318 5308 5299 5290 5282 5276
5629 5621 5612 5602 5591 5580 5568 5558 5546 5533 5519 5504 5489 5476 5463 5450 5440 5431 5424 5419 5415 5411 5407 5402 5397 5392 5386 5380 5373 5367 5359 5351 5344 5338 5333 5329 5324 5318 5309 5301 5294 5287 5282
5615 5606 5597 5587 5577 5565 5553 5542 5532 5519 5504 5489 5474 5461 5450 5439 5429 5423 5417 5412 5408 5404 5400 5395 5390 5385 5379 5373 5368 5361 5353 5345 5339 5333 5329 5326 5322 5317 5311 5305 5298 5292 5288
5601 5592 5583 5573 5563 5551 5539 5528 5516 5503 5488 5474 5461 5449 5439 5430 5422 5416 5411 5406 5402 5398 5393 5389 5384 5379 5374 5368 5362 5355 5347 5341 5335 5329 5325 5323 5320 5316 5312 5307 5302 5298 5294
5588 5579 5569 5559 5548 5537 5525 5514 5500 5487 5474 5462 5449 5438 5429 5422 5415 5410 5405 5400 5396 5392 5388 5384 5379 5374 5368 5362 5355 5349 5342 5336 5330 5326 5322 5319 5317 5315 5312 5309 5305 5301 5298